Regional Weather Roundup
Issued by NWS Northern Indiana

Home | Current Version | Previous Version | Text Only | Print | Product List | Glossary Off
Versions: 1 2 3 4 5 6 7 8 9 10 11 12 13 14 15 16 17 18 19 20 21 22 23 24 25 26 27 28 29 30 31 32 33 34 35 36 37 38 39 40 41 42 43 44 45 46 47 48 49 50

000
ASUS43 KIWX 181410
RWRIWX

KIWX WEATHER ROUNDUP
NATIONAL WEATHER SERVICE NORTHERN INDIANA
1000 AM EDT WED OCT 18 2017

NOTE: "FAIR" INDICATES FEW OR NO CLOUDS BELOW 12,000 FEET WITH NO
SIGNIFICANT WEATHER AND/OR OBSTRUCTIONS TO VISIBILITY.

* THESE STATIONS ARE NOT UNDER NWS QUALITY CONTROL. THEY ALSO MAY NOT
  REPORT WEATHER SUCH AS PRECIPITATION OR FOG.

INZ001>027-181500-
NORTHERN INDIANA

CITY           SKY/WX    TMP DP  RH WIND       PRES   REMARKS
GARY*          SUNNY     55  39  54 S13       30.20S
VALPARAISO     SUNNY     51  44  77 S8        30.22S
MICHIGAN CITY* SUNNY     54  41  62 S12       30.22R
LAPORTE*       SUNNY     50  43  78 S7        30.22S
KNOX*          SUNNY     52  43  71 S7        30.22F
SOUTH BEND     SUNNY     52  44  74 S10       30.22S
ELKHART*       SUNNY     52  41  66 S8        30.23R
GOSHEN         SUNNY     54  41  61 S12       30.24R
MONTICELLO*    SUNNY     52  43  71 SE7       30.24F
LOGANSPORT*    SUNNY     52  43  71 S8        30.27S
WARSAW*        SUNNY     52  43  71 S5        30.25S
AUBURN*        SUNNY     52  43  71 S5        30.27S
FORT WAYNE     MOSUNNY   53  44  71 S8        30.28R
HUNTINGTON*    SUNNY     52  44  73 S6        30.27S
PERU/GRISSOM   SUNNY     53  45  75 S9        30.26R

$$
INZ028>050-181500-
CENTRAL INDIANA

CITY           SKY/WX    TMP DP  RH WIND       PRES   REMARKS
LAFAYETTE      SUNNY     51  45  79 S6        30.25S
KOKOMO*        SUNNY     52  44  74 S9        30.28S
MUNCIE*        SUNNY     56  42  59 S7        30.29R
INDIANAPOLIS   MOSUNNY   50  44  80 SE6       30.29R

$$
MIZ043>046-050>051-056>058-064>065-071>073-077>080-181500-
SOUTHWEST LOWER MICHIGAN

CITY           SKY/WX    TMP DP  RH WIND       PRES   REMARKS
BATTLE CREEK   SUNNY     53  43  68 SW12      30.22R
BENTON HARBOR  SUNNY     54  41  61 S8        30.19S
COLDWATER*     SUNNY     54  40  59 SW9       30.24R
HILLSDALE*     SUNNY     52  41  66 S8        30.23S
HOLLAND        SUNNY     53  43  68 S13       30.18S
GRAND RAPIDS   SUNNY     56  42  59 S16       30.18S
KALAMAZOO      SUNNY     52  42  69 S8        30.22R
STURGIS*       SUNNY     53  43  70 S12       30.22S
THREE RIVERS*  FAIR      53  45  73 S6        30.23S

$$
OHZ001>008-015>018-024>025-181500-
NORTHWEST OHIO

CITY           SKY/WX    TMP DP  RH WIND       PRES   REMARKS
WAUSEON*       FAIR      52  45  76 SW9       30.26S
DEFIANCE       SUNNY     51  42  71 S10       30.27S
FINDLAY        SUNNY     55  44  66 S9        30.29R
TOLEDO EXPRESS SUNNY     52  44  74 S6        30.27S
TOLEDO METCALF SUNNY     54  42  64 SW9       30.29R
LIMA           SUNNY     53  45  74 S8        30.30R

$$
AND FOR LAKE MICHIGAN COASTAL AND OPEN LAKE BUOY OBSERVATIONS

STATION/POSITION TEMP    WIND        PRES    VSBY  WAVE
                 AIR SEA DIR/SP/G                  HT/PER
                 (F)     (DEG/KT/KT) (MB)    (MI)  (FT/S)
CALUMET HARBOR    54     190/  7/ 10 1021.2S
MICHIGAN CITY     51     160/ 17/ 21   N/A
BURNS HARBOR      53     180/ 10/ 15 1023.0R
SAINT JOSEPH      54     190/  7/ 11 1023.4
SOUTH LAKE BUOY   59 61  220/ 17/ 21 1020.6R         4/ 6
4 MI NW BRIDGMAN  55 58  210/ 16/ 17 1023.0          3/ 4
MICHIGAN CITY     53 57  190/ 16/ 19   N/A           2/ 2

$$
&&




USA.gov is the U.S. government's official web portal to all federal, state and local government web resources and services.